User: anonymous   Login
Location: Caltech
(34.1382°N, 118.1253°W)
Time: 11:50:37
(UTC-08:00)
Language:

OAO 1 Rocket - Orbit

View from above orbital plane
View from above orbital plane
View from above satellite
View from above satellite

Ground track
Ground track

The orbit data is extracted from the following two-line orbital elements,

1  2144U 66031B   18049.91228378 +.00000049 +00000-0 +20267-4 0  9993
2  2144 035.0422 274.9418 0009054 306.5202 053.4654 14.42659631723336
Epoch (UTC): 18 February 2018 21:53:41
Eccentricity: 0.0009054
inclination: 35.0422°
perigee height: 743 km
apogee height: 756 km
right ascension of ascending node: 274.9418°
argument of perigee: 306.5202°
revolutions per day: 14.42659631
mean anomaly at epoch: 53.4654°
orbit number at epoch: 72333

The dashed part of the orbit path shows where the satellite is in the earth's shadow,  

DLR